User: anonymous   Login
Location: Berduj
(43.0019°N, 22.3781°E)
Time: 10:14:57
(UTC+00:00)
Language:

Cosmos 1953 Rocket - Orbit

View from above orbital plane
View from above orbital plane
View from above satellite
View from above satellite

Ground track
Ground track

The orbit data is extracted from the following two-line orbital elements,

1 19211U 88050B   19348.82291661  .00000079  00000-0  67457-5 0  9995
2 19211  82.5277  70.6734 0021780   0.7801 138.6328 14.83056045701755
Epoch (UTC): 14 December 2019 19:44:59
Eccentricity: 0.0021780
inclination: 82.5277°
perigee height: 604 km
apogee height: 635 km
right ascension of ascending node: 70.6734°
argument of perigee: 0.7801°
revolutions per day: 14.83056045
mean anomaly at epoch: 138.6328°
orbit number at epoch: 70175

The dashed part of the orbit path shows where the satellite is in the earth's shadow,  

DLR